GFSWCAN_prec_cthk_135.txt.gz
RH
97 97 85 81 76 70 69 72 76 78 82 87 89 92 95 97 93 86 80 78 78 71 78 83 78 75 68 70 62 50 48 47 40 54 52 53 52 47 50 53 50 47 49 50 52 53 66 59 55 60 65 59 59 61
95 88 87 80 76 73 72 74 79 86 88 79 77 84 92 96 96 79 75 69 75 82 85 77 69 69 71 66 62 50 48 39 42 50 52 51 46 49 47 53 46 53 49 59 52 70 60 54 54 54 56 59 62 63
96 98 87 78 79 77 76 77 78 72 76 77 86 94 93 95 86 71 77 76 77 82 74 64 62 63 48 46 48 52 49 43 44 49 51 51 48 47 49 56 51 48 45 49 48 51 51 54 55 57 58 59 59 61
92 95 88 83 81 79 80 82 84 84 79 83 90 93 91 84 72 65 76 73 74 62 65 67 61 52 43 38 38 48 47 44 37 40 43 45 45 41 51 51 47 47 43 47 52 49 50 53 56 58 60 61 62 63
97 97 93 81 78 80 81 86 92 91 78 79 90 86 73 71 60 62 73 71 69 72 69 73 65 58 54 47 41 45 46 42 37 38 39 40 38 38 40 41 51 44 48 46 50 46 51 55 56 59 62 63 65 68
98 99 86 80 79 81 84 88 93 90 86 85 89 74 68 61 53 59 76 70 69 69 74 85 78 71 65 60 48 47 45 43 38 37 40 38 38 41 41 45 46 41 42 41 45 49 52 57 62 68 72 72 72 71
92 93 88 84 84 83 86 91 97 96 91 91 94 80 66 56 48 49 64 66 67 66 73 80 75 72 70 69 67 60 51 52 52 42 45 43 37 40 43 47 45 44 41 41 46 52 57 63 68 70 70 70 71 71
98 98 92 88 79 84 87 91 93 95 92 92 91 77 67 65 58 50 48 56 57 68 73 80 81 75 73 75 69 66 56 54 52 52 46 48 43 44 48 46 43 42 43 47 52 55 62 66 68 70 70 71 71 70
98 94 83 79 83 85 92 92 94 92 85 88 80 70 67 60 53 49 48 54 57 64 68 71 73 83 78 80 74 67 61 60 52 54 51 50 51 50 45 42 39 43 45 50 54 62 65 68 68 68 65 64 61 54
92 83 81 83 87 94 97 98 94 94 91 85 78 73 64 52 48 54 53 54 57 55 62 72 76 81 81 76 75 66 61 61 59 54 52 52 52 51 42 42 42 47 51 55 62 66 67 68 64 60 59 48 38 34
89 85 86 92 96 97 98 98 98 95 92 77 66 71 63 53 56 58 60 63 63 66 71 71 73 78 79 76 68 67 62 58 59 59 56 53 48 45 43 45 45 48 53 58 63 65 65 61 58 49 39 34 30 29
91 90 91 95 98 98 97 93 95 97 82 70 71 68 57 60 66 74 74 71 69 71 70 78 77 76 78 76 66 64 60 58 63 56 56 52 45 42 44 48 52 56 59 63 65 64 60 55 43 36 32 29 28 28
89 91 91 93 96 97 97 96 95 91 88 81 77 75 77 74 79 76 78 70 70 66 73 77 79 75 75 78 69 64 65 65 58 59 53 47 46 42 45 48 54 59 62 64 62 58 51 40 34 32 29 27 24 22
96 94 94 94 95 93 83 82 88 90 89 84 81 87 87 82 76 73 72 75 72 71 74 79 77 78 81 74 69 66 65 59 61 56 47 46 39 39 40 44 52 57 61 60 57 50 38 32 30 28 25 23 23 24
99 96 96 95 85 78 75 81 69 67 74 72 75 84 81 76 78 78 78 77 72 73 81 83 78 77 77 76 73 64 62 60 50 46 48 43 38 39 41 46 51 56 57 55 49 39 31 28 27 25 24 25 25 24
99 97 95 85 78 70 74 66 58 58 62 66 70 74 77 77 77 79 81 80 79 78 86 88 83 87 81 75 68 61 55 49 48 45 43 41 45 46 50 52 55 55 53 50 43 31 27 26 25 24 26 26 25 25
90 86 85 82 77 74 66 63 58 55 56 63 68 70 74 78 76 79 86 86 80 84 91 88 88 84 78 68 62 55 53 53 47 42 40 42 42 44 47 50 54 54 51 48 37 27 25 25 25 26 27 26 26 27
90 93 97 95 87 82 72 63 59 54 58 62 64 64 65 66 72 78 79 82 82 88 92 91 86 75 71 65 55 55 51 50 43 43 43 42 43 46 47 47 53 55 51 47 32 25 24 24 25 27 28 28 29 29
91 95 97 96 94 89 83 71 65 60 63 62 58 58 59 61 63 71 79 81 81 82 86 83 84 72 68 66 69 63 54 51 47 43 45 45 44 47 49 48 50 52 51 46 31 25 24 24 27 32 32 31 34 36
92 94 93 93 90 89 84 78 69 61 61 60 54 49 50 51 55 57 67 74 78 83 87 84 79 85 81 75 66 62 60 57 53 52 51 48 46 47 50 50 48 50 52 44 33 28 28 26 29 33 35 35 37 39
98 98 98 95 90 84 82 78 73 67 61 63 53 52 49 44 49 57 63 66 71 71 75 77 80 77 76 75 72 65 60 58 59 58 57 55 50 51 54 53 52 51 52 54 44 32 29 29 30 33 35 38 40 42
97 98 98 96 90 85 80 75 72 64 60 54 51 49 52 51 49 48 54 68 71 75 71 67 63 63 62 60 60 60 56 52 53 59 59 57 55 58 59 59 59 58 55 59 57 37 30 30 32 34 37 39 42 44
85 91 91 89 83 78 74 69 64 57 57 56 53 52 53 53 52 51 55 59 67 71 70 68 63 57 54 54 58 58 58 63 67 67 64 63 63 62 63 64 64 62 55 53 52 39 33 33 34 35 37 38 40 42
69 72 76 80 81 83 73 70 66 61 61 61 61 59 56 60 59 63 65 69 70 70 68 68 68 64 63 66 65 63 68 72 72 71 69 68 66 66 69 69 67 67 66 55 42 38 35 34 35 35 36 37 38 39
74 73 71 67 67 71 68 67 65 64 66 66 64 64 67 71 74 76 75 77 76 71 69 67 65 67 71 71 71 69 72 71 68 67 67 67 69 71 73 71 69 69 69 67 59 47 39 36 35 35 36 37 36 35
61 62 70 69 69 68 64 68 65 62 64 68 70 71 75 80 80 81 78 77 77 77 73 71 74 73 74 73 71 69 68 68 68 68 68 72 75 75 73 70 68 69 69 68 65 61 59 58 55 53 52 52 51 53
58 61 56 54 59 59 66 77 84 84 82 78 80 86 92 94 90 85 85 83 81 83 81 76 76 75 73 71 69 68 68 67 68 70 74 76 75 74 72 70 70 72 71 68 68 68 66 63 62 62 62 62 61 58
57 65 70 73 82 84 87 89 89 89 94 93 96 96 96 95 96 97 98 95 90 89 88 85 80 76 73 70 66 64 65 69 72 76 77 77 75 72 69 68 67 69 68 66 66 70 71 68 66 65 66 68 70 73
70 78 82 86 87 87 89 92 94 96 97 96 95 95 95 97 98 97 95 95 95 95 94 93 91 88 83 80 78 76 75 71 70 71 70 68 67 67 65 68 72 72 72 69 64 61 62 66 69 71 75 80 82 84
84 83 88 91 88 86 89 91 93 91 92 93 94 94 95 95 94 95 96 96 96 96 96 96 96 93 89 84 81 80 79 80 82 83 81 78 76 73 72 71 69 69 69 71 73 78 82 85 86 87 86 86 87 87
94 93 93 91 88 86 85 86 87 89 91 92 92 91 92 94 95 96 96 97 97 97 96 94 94 92 89 86 85 85 87 89 90 90 90 90 90 89 87 85 83 83 84 85 85 85 84 83 81 82 84 87 90 94
97 97 96 94 93 92 93 94 94 93 93 93 93 93 94 94 93 93 94 94 95 94 93 92 90 89 87 89 93 94 95 95 94 92 90 89 87 83 80 77 77 78 78 77 76 75 77 80 82 85 89 93 96 97
97 98 98 97 97 97 98 98 97 95 95 93 93 93 92 91 89 91 92 90 90 90 89 89 90 93 95 97 98 97 96 94 92 88 84 79 75 72 70 70 70 71 72 75 78 81 83 85 87 90 92 95 94 87

GFSWCAN_prec_cthk_138.txt.gz
RH
88 96 95 88 79 71 68 66 67 64 67 75 92 96 97 98 97 98 95 98 96 93 86 83 85 82 82 79 77 70 65 61 60 68 56 64 70 56 62 53 45 47 49 50 49 53 73 57 60 59 63 60 54 55
91 97 99 89 79 75 71 71 71 64 68 85 96 97 97 98 95 96 92 96 95 85 86 83 83 90 82 77 64 61 60 49 42 48 53 76 68 58 61 68 50 59 57 70 56 65 57 57 57 55 53 54 56 57
93 96 97 89 79 76 74 74 74 75 75 91 91 96 95 95 88 92 92 87 83 82 93 89 86 81 73 73 73 60 53 46 44 57 67 71 53 53 56 58 55 51 49 57 52 54 49 51 46 49 51 51 52 55
94 98 98 86 79 76 76 72 73 76 81 83 92 98 97 94 84 92 91 83 84 82 83 88 80 74 66 66 59 54 54 47 47 57 56 53 55 47 57 59 60 49 44 48 52 50 48 47 46 48 50 52 53 54
96 96 91 83 77 77 75 70 68 67 81 88 96 97 94 86 80 90 87 87 94 87 81 75 70 67 58 51 46 48 49 49 49 51 47 50 47 47 50 49 57 48 50 47 46 44 46 45 46 48 50 53 57 59
97 99 92 82 79 81 76 75 74 75 86 90 95 94 87 77 78 91 89 89 83 68 65 67 66 62 56 48 47 52 52 47 48 52 50 47 44 45 40 42 50 46 45 44 44 43 42 46 47 50 54 59 61 62
95 98 91 86 76 77 78 83 85 89 83 91 89 83 85 72 72 84 84 79 73 71 65 70 71 69 62 54 50 49 56 62 58 43 43 37 31 36 39 49 48 45 38 38 40 39 45 47 53 57 59 61 62 64
98 95 91 82 75 81 82 83 90 92 90 93 83 82 74 68 65 72 80 76 75 77 80 82 83 74 72 71 61 54 50 52 52 52 42 43 38 39 45 47 44 41 41 38 41 44 48 53 56 57 59 60 61 59
99 95 84 78 79 80 82 86 94 97 93 95 84 77 71 64 65 70 74 72 70 77 79 78 75 73 71 74 69 72 66 64 54 57 54 49 49 48 46 44 40 41 37 41 45 48 49 52 55 56 55 54 52 43
97 89 87 83 78 79 80 86 94 98 97 96 87 73 62 58 53 55 65 63 64 65 79 82 81 77 76 80 79 75 68 62 57 56 55 53 54 52 43 42 38 40 38 42 45 49 53 54 54 51 51 43 35 31
98 94 86 80 79 81 84 91 92 94 94 89 79 73 71 67 67 58 58 61 60 66 75 84 76 77 82 81 76 71 69 64 63 60 59 53 50 48 42 43 40 41 42 45 49 52 54 54 50 45 37 33 30 28
90 83 80 83 86 90 91 97 98 95 85 76 70 69 62 60 59 61 59 64 69 73 71 76 78 76 85 80 71 68 67 62 77 62 56 54 53 49 40 42 41 41 43 47 51 54 53 50 44 35 32 29 27 25
82 83 88 91 93 94 96 98 94 87 81 74 77 64 65 63 70 70 69 65 74 70 74 78 80 77 82 80 72 64 69 73 63 61 55 57 54 42 40 41 45 46 46 51 55 54 50 45 35 31 28 26 24 23
88 93 96 94 94 95 95 96 96 86 78 75 75 71 76 73 76 82 81 75 71 66 74 77 78 83 80 79 75 66 69 65 65 61 53 53 44 41 41 42 43 46 50 53 53 51 48 39 31 30 27 24 23 22
90 94 94 94 94 94 96 97 91 84 83 84 86 89 86 86 82 82 82 79 73 79 77 79 78 80 82 81 77 71 70 65 59 56 64 55 38 37 37 37 42 43 46 51 52 50 44 34 30 29 25 24 23 22
90 94 90 80 83 88 87 84 81 78 77 79 85 85 81 78 78 78 80 76 73 80 84 86 81 84 84 79 74 71 66 61 60 65 57 42 38 39 40 41 45 47 48 49 50 48 39 30 27 26 24 24 23 23
87 86 77 74 75 68 74 77 75 71 70 76 84 89 91 81 82 82 83 78 76 83 90 89 86 85 84 75 71 69 69 79 72 56 48 43 42 42 42 43 45 46 48 50 50 46 35 27 25 24 23 24 25 24
91 90 81 72 69 60 58 59 60 68 74 80 74 74 76 76 78 85 88 84 85 94 95 98 91 86 84 79 75 75 76 64 59 51 43 41 41 40 40 42 41 44 49 51 49 46 34 25 24 23 23 25 26 26
91 88 79 75 71 65 61 57 58 61 71 68 67 65 64 65 69 76 80 81 82 89 94 92 91 87 87 96 94 84 74 66 54 46 41 42 44 43 43 44 43 44 48 50 49 47 36 26 23 23 22 24 26 28
92 90 88 81 76 73 71 64 61 56 63 63 56 57 55 55 55 57 66 76 81 82 86 90 92 98 96 89 86 83 74 65 57 54 51 47 47 46 46 44 45 47 47 47 50 50 42 30 24 25 26 27 26 32
96 97 95 93 90 87 82 80 74 67 60 61 53 53 49 45 48 52 55 55 63 74 83 87 88 92 92 88 82 74 70 62 62 59 60 56 53 50 50 47 50 51 52 51 49 50 53 44 30 26 28 28 29 31
92 93 91 86 86 85 81 83 77 72 68 63 59 54 54 48 44 43 46 54 58 66 72 76 77 77 76 76 78 77 75 70 64 59 52 53 58 57 56 55 55 56 56 58 58 54 53 57 48 34 30 30 31 32
98 98 97 89 82 81 84 81 77 71 67 66 58 56 52 50 50 43 42 46 53 58 66 68 70 69 68 65 62 60 60 62 64 61 57 62 62 62 61 60 60 60 62 63 63 63 54 55 54 38 33 33 34 34
92 89 88 82 78 78 74 78 74 68 63 60 56 52 53 53 48 47 48 54 50 52 58 63 67 69 70 71 67 65 64 60 63 64 66 68 68 67 66 63 63 63 65 68 69 70 69 60 50 44 38 35 35 35
82 84 83 79 78 75 71 69 68 62 59 58 56 55 58 53 57 57 57 58 59 60 66 65 65 66 69 68 67 69 71 70 66 65 66 67 66 64 66 68 68 70 71 73 72 72 73 72 68 63 58 54 52 53
63 62 68 68 70 69 69 70 64 61 59 60 59 62 64 68 69 71 70 73 71 73 70 67 68 67 69 70 72 74 75 71 69 69 69 72 69 69 70 71 74 76 78 77 74 72 74 74 73 72 68 65 64 66
61 59 56 60 66 62 64 61 66 70 72 73 75 75 73 76 81 78 82 83 84 86 87 84 81 77 75 73 73 72 72 71 72 73 71 72 71 71 72 76 77 78 77 75 73 72 75 75 75 74 72 71 72 72
55 65 61 55 59 67 71 82 86 79 83 86 84 84 88 90 92 96 97 95 94 93 91 89 87 87 86 82 78 76 73 73 72 73 73 73 72 73 75 76 77 76 75 73 72 76 76 78 79 80 77 74 72 74
56 61 69 68 73 78 79 85 91 94 96 97 97 96 94 95 97 98 98 98 98 96 95 96 96 96 95 92 87 85 84 82 79 79 76 71 71 72 72 70 68 64 63 65 68 70 73 71 71 73 78 84 87 90
72 70 76 81 81 79 83 86 90 89 93 95 96 96 96 96 98 98 98 98 98 98 98 98 97 96 96 95 94 92 90 86 84 82 79 80 82 84 86 87 87 84 82 84 85 84 84 85 86 88 87 86 85 85
88 88 89 86 86 86 84 84 87 89 89 89 92 93 93 95 94 94 95 96 97 97 98 98 98 97 98 97 97 96 94 91 88 86 86 88 90 92 92 93 94 95 96 95 92 88 84 82 81 82 82 83 84 86
95 96 95 93 92 90 87 87 89 89 91 92 93 94 94 94 94 95 96 96 96 96 96 96 96 96 95 94 94 93 92 90 90 92 94 96 95 93 91 89 87 86 86 83 82 80 80 81 83 85 86 86 87 88
96 98 98 97 96 97 98 97 95 96 96 95 96 97 96 95 94 96 97 97 96 95 95 94 94 94 94 94 93 92 92 95 97 98 96 94 91 87 84 81 80 79 79 80 81 83 85 86 87 87 87 87 88 89

GFSWCAN_prec_cthk_141.txt.gz
RH
94 89 84 95 97 91 75 66 61 59 61 66 72 76 87 97 96 97 98 98 97 95 96 93 91 90 83 83 86 82 81 81 79 81 83 75 73 60 61 58 50 49 54 53 51 59 69 51 56 60 60 57 51 45
92 89 87 95 98 87 74 69 66 63 61 64 75 84 97 98 97 98 99 98 99 97 98 95 92 90 93 81 79 82 77 76 74 78 70 74 82 75 71 71 55 57 49 55 52 56 55 57 57 55 52 46 44 46
90 87 92 96 98 84 74 70 68 69 61 72 83 90 98 96 97 99 99 99 97 97 97 97 95 91 86 82 77 70 64 63 62 65 70 80 85 81 81 68 61 55 49 55 56 59 60 60 60 55 48 46 45 43
92 91 95 98 98 83 76 74 73 69 66 79 91 97 96 95 98 99 99 98 95 90 97 96 92 86 85 78 69 64 62 59 58 65 70 82 81 76 72 60 58 53 55 58 57 55 52 52 47 47 46 43 43 45
91 92 97 97 87 78 75 76 75 72 75 83 96 97 96 93 97 98 95 93 90 85 95 93 90 84 77 74 70 69 66 54 56 56 65 67 72 65 55 58 60 50 53 50 51 47 45 44 43 45 44 45 46 49
91 95 98 95 85 78 77 71 62 72 81 92 97 97 92 91 97 94 92 92 85 83 80 91 89 81 73 62 61 54 56 49 50 57 57 57 56 52 55 62 57 49 43 38 40 39 39 41 43 43 45 50 54 55
93 96 94 88 81 81 80 69 67 79 92 95 98 92 83 95 95 89 96 93 87 75 76 82 83 75 70 58 55 57 59 60 57 53 53 48 43 45 51 59 47 45 44 42 38 38 41 40 43 46 51 55 55 55
97 99 93 86 85 86 83 78 75 84 91 93 95 89 82 85 88 93 93 87 77 69 60 67 73 66 60 56 55 57 58 55 54 54 50 45 39 41 48 44 42 45 44 40 38 37 37 43 47 53 53 53 52 50
98 97 93 85 85 84 86 88 90 93 93 91 94 88 78 78 87 91 87 78 78 72 70 66 71 71 66 60 54 50 51 60 62 63 56 50 42 42 43 40 41 38 34 36 35 39 43 46 48 51 50 48 46 41
99 96 91 85 82 85 88 92 97 97 93 90 88 80 73 74 80 85 79 69 66 76 79 78 72 73 71 68 72 69 60 54 57 62 56 59 59 51 44 42 38 35 35 36 37 41 43 46 47 48 46 42 36 30
94 91 87 80 81 83 86 92 97 96 94 86 76 74 74 72 73 75 77 71 64 86 92 88 76 74 74 77 75 67 73 70 69 64 64 60 56 55 46 41 37 35 33 35 37 42 45 45 45 45 40 34 29 26
92 87 84 79 75 78 82 92 97 97 92 80 73 68 67 60 59 66 78 73 73 76 85 85 79 78 77 75 70 68 67 70 81 64 59 62 57 49 42 40 37 34 36 38 41 45 47 47 45 40 33 29 26 24
94 87 83 78 78 80 88 91 92 89 84 77 75 71 68 66 68 68 70 78 78 71 76 75 74 75 76 74 75 67 69 72 67 69 63 63 61 48 42 39 38 37 38 41 45 47 47 46 43 34 29 27 25 24
87 84 81 82 83 87 91 91 84 82 77 76 76 78 82 77 80 81 74 71 70 74 78 75 74 76 75 77 78 70 75 76 74 72 63 61 58 48 41 39 39 40 41 44 46 48 48 46 41 31 28 26 23 23
80 86 91 92 91 93 94 91 82 76 82 83 78 82 82 81 79 79 78 71 70 79 76 75 76 75 81 79 79 73 73 70 70 67 71 59 51 46 41 40 38 37 41 43 47 49 47 46 39 30 28 26 23 23
86 85 90 90 92 93 89 86 79 75 81 85 88 83 83 77 83 83 82 80 79 83 78 74 78 82 82 81 80 76 72 71 74 74 71 60 48 44 38 37 38 40 43 45 47 47 47 46 38 30 27 26 23 23
81 78 84 88 91 91 88 84 82 81 81 88 95 94 90 83 83 82 78 81 82 86 86 83 84 84 86 83 81 79 82 83 81 73 58 52 49 45 41 41 43 46 47 47 47 48 49 46 39 29 26 23 22 23
70 70 71 76 79 83 80 73 72 82 90 92 90 84 80 82 84 83 82 77 83 88 88 95 92 88 90 87 90 89 87 79 75 68 60 51 45 40 39 39 40 42 44 46 48 49 48 46 38 28 25 23 21 21
70 68 61 60 60 62 63 68 66 75 77 74 71 71 73 77 80 84 82 81 85 89 91 94 94 96 98 97 98 94 91 82 72 64 57 53 45 41 41 41 42 42 42 42 45 47 46 46 43 31 24 22 20 19
80 77 71 62 55 53 53 55 59 65 72 68 63 60 58 56 60 69 78 81 82 88 92 95 97 98 98 96 95 92 89 84 78 69 61 54 48 45 43 43 42 42 43 45 46 44 45 47 47 39 30 26 23 21
86 80 74 68 62 62 66 62 58 55 56 57 56 53 48 53 54 54 53 51 62 80 88 90 95 97 97 97 94 90 86 79 74 70 64 59 55 50 51 49 47 46 45 47 48 48 48 47 46 46 47 37 30 27
90 83 78 74 74 71 75 72 69 67 60 55 54 54 47 48 42 40 42 45 53 58 64 78 86 87 85 85 82 83 84 80 74 70 66 63 57 50 53 56 56 54 53 52 52 52 52 53 54 52 50 52 50 38
91 84 80 77 75 74 82 73 69 65 65 66 60 58 52 49 46 40 39 41 45 48 54 61 69 74 73 72 72 72 70 71 75 76 73 70 64 58 56 60 61 60 58 56 56 57 59 62 62 62 60 52 52 45
87 85 79 77 74 75 74 76 76 74 71 69 67 60 59 53 46 43 46 50 46 46 45 48 53 59 66 70 72 72 70 67 65 65 64 65 67 63 61 64 66 65 62 62 62 62 64 67 69 70 71 71 67 60
86 83 79 74 72 71 70 72 73 69 65 62 60 58 60 54 53 54 54 54 52 50 51 52 54 57 59 61 64 68 69 67 68 70 71 69 68 66 66 67 65 64 66 67 67 68 70 73 77 77 76 75 75 74
71 73 82 79 79 75 74 71 70 67 64 62 59 62 60 59 58 61 60 56 60 62 59 58 61 61 60 60 60 63 66 66 68 73 73 72 71 70 71 71 68 69 72 71 71 72 75 78 80 79 78 78 79 79
57 55 55 62 69 72 73 71 67 67 64 61 64 67 69 74 71 69 74 77 77 77 76 76 74 72 72 71 67 63 63 66 70 76 79 79 77 75 75 74 72 72 73 74 74 76 79 82 83 81 81 82 84 84
53 57 57 52 56 61 63 62 66 70 73 77 83 87 84 81 83 90 92 94 95 96 96 96 94 93 90 87 87 86 82 79 78 78 78 75 74 75 75 73 72 72 72 72 74 74 78 77 77 76 79 82 84 83
50 52 62 67 57 64 71 79 87 91 90 90 91 93 94 96 97 98 97 98 98 98 98 98 96 95 93 94 93 93 94 93 92 91 88 86 87 82 81 81 80 79 79 79 81 81 82 83 81 84 88 91 92 94
64 59 63 70 66 73 80 81 82 85 88 90 92 94 96 97 98 98 98 98 98 98 98 98 98 98 97 97 97 97 98 97 96 96 95 92 91 89 87 86 86 86 87 88 90 91 92 93 95 98 98 97 94 90
85 81 78 77 82 84 82 81 82 84 87 90 92 93 94 94 94 95 96 97 97 98 98 98 98 98 98 96 96 96 97 97 97 97 96 97 95 92 89 89 89 91 93 94 96 97 97 96 93 91 91 90 92 93
95 96 97 96 96 93 90 88 88 88 88 88 89 90 92 93 94 95 95 96 97 98 97 97 97 98 98 98 98 98 99 99 98 98 97 95 93 90 88 89 91 92 92 89 87 87 88 89 90 93 96 96 96 94
97 97 97 98 98 98 97 95 94 94 93 92 94 97 96 96 96 97 97 97 97 96 95 95 96 97 98 98 97 98 98 97 96 95 94 93 92 92 94 92 88 86 86 87 89 92 95 96 97 96 95 94 93 91

GFSWCAN_prec_cthk_144.txt.gz
RH
86 84 82 80 87 97 96 84 71 60 54 55 60 64 67 74 88 94 91 86 88 90 94 97 95 92 88 85 87 87 88 88 92 91 85 81 80 75 71 62 64 63 66 66 70 74 61 43 48 52 52 55 53 49
90 90 89 84 94 98 96 91 74 64 57 57 63 67 72 83 94 97 95 92 89 88 90 92 97 96 93 90 87 86 87 85 85 85 81 76 85 77 69 78 65 74 62 71 55 50 47 46 46 48 51 49 46 45
82 89 88 85 91 99 93 82 70 60 56 58 66 72 85 91 95 98 96 92 92 93 96 94 96 94 91 89 87 85 85 84 81 78 78 76 84 82 82 75 72 69 57 53 50 52 49 49 51 53 53 48 44 42
65 85 85 84 94 98 94 76 65 59 55 62 73 86 92 98 99 98 99 96 97 97 98 98 95 95 88 85 87 83 81 80 81 79 79 84 92 85 82 74 70 64 56 54 56 54 54 55 55 55 48 43 40 40
63 82 85 86 97 97 87 72 67 63 59 66 78 91 97 98 99 99 99 93 92 89 95 97 95 94 90 89 84 77 73 69 71 77 86 85 82 89 85 79 72 61 59 57 56 49 48 53 49 44 40 39 39 40
67 83 89 92 98 95 82 71 68 64 66 74 88 98 95 98 99 99 98 90 90 89 90 97 93 91 90 86 80 73 69 68 64 66 78 77 77 86 84 81 63 56 51 47 39 36 39 42 39 38 37 36 40 45
73 86 90 98 97 91 74 66 70 67 76 85 98 96 92 94 93 96 93 91 84 82 86 91 91 86 79 74 71 72 70 69 62 65 71 74 66 67 67 66 58 52 49 40 33 32 38 36 36 35 37 40 46 48
88 93 98 99 93 79 70 62 65 79 88 94 96 98 95 98 95 95 92 88 81 78 79 89 91 84 80 75 73 71 64 61 54 59 55 56 55 55 54 49 49 49 40 39 38 35 33 34 35 37 41 44 45 45
94 97 99 96 83 77 69 66 77 87 95 95 95 94 94 98 95 92 90 89 81 76 76 79 81 83 74 65 66 63 63 67 65 69 58 51 54 52 40 40 45 44 38 38 38 36 33 34 37 40 41 43 43 38
95 98 90 85 84 77 73 73 84 91 93 95 89 87 84 94 94 87 82 68 64 73 66 69 63 66 59 54 56 51 58 59 62 64 60 61 56 46 32 37 43 40 35 33 33 35 36 38 38 40 41 41 36 32
98 95 88 85 82 82 85 86 86 94 95 95 80 80 86 90 90 77 70 63 65 82 77 73 67 69 70 64 65 58 54 50 55 59 65 62 55 48 42 45 46 37 34 33 34 34 35 36 39 40 38 34 30 26
94 90 85 81 83 86 88 92 92 90 90 83 81 81 81 76 75 79 75 72 77 85 84 80 78 73 73 70 69 67 67 68 74 62 59 62 50 48 51 49 46 37 35 35 34 35 38 40 40 40 35 30 27 26
88 85 81 77 79 83 87 89 94 88 82 83 80 75 69 71 79 75 80 81 77 86 84 79 80 78 77 72 72 69 71 73 72 77 66 57 56 49 51 48 43 39 38 36 37 39 41 42 41 38 31 29 28 26
84 79 73 71 73 81 89 93 88 84 77 73 73 76 74 78 77 78 80 80 75 80 81 79 76 78 77 75 75 72 75 72 73 72 63 59 59 55 49 44 42 41 39 38 40 43 45 46 43 38 31 29 28 25
84 77 75 79 80 81 83 86 83 80 78 75 75 82 79 81 82 81 80 77 81 85 80 79 77 72 74 75 77 76 77 74 71 69 68 64 64 58 49 45 43 42 40 42 42 43 46 47 45 41 34 31 27 24
80 83 87 85 87 84 80 80 80 79 82 86 83 82 82 82 84 81 78 80 84 82 80 75 74 75 77 78 78 76 71 70 68 75 74 68 60 58 52 49 46 43 42 43 44 45 46 47 47 45 37 32 29 26
85 88 91 92 88 87 79 78 82 86 87 93 92 90 85 82 85 83 83 85 84 82 83 78 75 77 82 84 83 83 83 82 79 74 71 67 59 55 52 50 47 45 45 47 47 46 46 48 49 48 40 33 30 27
79 85 90 91 87 85 82 83 84 90 96 97 95 89 89 86 84 81 83 86 90 88 87 88 88 87 93 90 92 89 85 85 84 75 71 66 62 59 55 52 49 49 49 48 48 48 49 50 51 51 46 36 32 28
67 73 77 81 75 69 72 78 80 90 88 84 86 87 88 88 86 85 85 88 91 90 89 92 94 97 96 94 93 91 88 80 76 73 69 64 60 57 53 48 45 45 45 45 45 46 47 49 50 50 49 43 34 31
63 64 62 63 63 63 64 65 66 69 74 75 73 72 73 79 84 86 85 84 85 86 91 97 98 97 97 97 97 94 90 87 83 79 73 67 62 57 54 51 47 45 46 46 47 48 47 46 46 47 49 49 43 36
64 57 52 49 49 50 54 56 58 60 61 59 57 55 58 60 61 60 59 64 75 90 94 97 98 98 98 96 93 90 88 88 85 81 78 74 70 66 63 59 52 49 48 48 47 48 48 48 48 49 49 50 49 48
75 69 63 57 54 57 58 57 56 54 49 50 50 49 47 47 45 44 43 48 56 63 72 82 90 91 91 87 85 87 88 87 84 80 78 74 71 69 66 61 60 60 58 56 52 51 51 52 52 53 53 55 57 58
80 77 73 68 64 66 71 65 62 56 56 52 48 48 50 51 48 42 40 43 44 47 52 60 66 74 77 78 79 78 77 77 79 80 81 80 77 76 76 70 66 62 62 62 61 59 57 57 57 58 59 61 64 66
83 78 75 74 68 73 71 72 69 65 65 62 62 59 60 56 47 43 46 44 44 44 45 46 47 52 57 63 72 74 74 73 73 75 74 72 69 68 69 73 73 70 68 67 66 62 61 62 63 63 65 68 70 72
84 82 74 71 69 69 71 73 73 68 70 69 68 67 64 56 54 52 51 49 48 51 53 52 49 47 49 53 55 57 61 66 70 69 72 72 72 72 75 76 75 73 70 69 67 64 65 66 69 70 73 75 77 80
74 74 78 75 76 74 71 71 70 69 68 65 63 65 61 60 58 58 55 54 57 61 63 60 55 52 53 57 57 56 55 55 57 62 67 69 71 75 78 79 75 73 73 74 73 70 70 70 73 75 76 79 82 85
60 59 64 72 76 78 78 76 72 71 70 69 70 66 64 64 66 66 67 72 74 73 72 72 68 66 67 69 71 71 70 67 64 64 65 69 73 78 82 83 81 77 79 79 77 76 74 73 74 76 79 81 82 83
56 58 59 56 58 60 68 70 71 69 69 70 69 74 78 79 80 80 83 86 88 91 92 92 91 89 91 92 89 86 85 84 82 77 74 75 81 84 83 83 82 80 77 75 74 71 71 72 76 81 85 88 90 92
46 48 50 59 58 59 65 70 73 80 87 91 92 90 88 90 94 98 98 98 98 98 98 98 98 98 97 96 96 95 94 95 95 94 94 93 93 93 93 93 91 89 86 83 83 82 81 82 83 85 89 92 94 95
62 59 56 63 65 60 68 77 82 86 88 90 93 96 97 98 99 99 99 98 98 98 98 98 97 96 97 97 96 95 95 97 97 97 96 98 98 97 96 95 95 93 91 90 88 88 89 90 91 93 95 97 98 99
87 85 79 76 78 77 78 80 81 85 86 88 91 93 96 97 96 96 96 97 98 97 98 98 98 97 97 97 98 98 98 98 97 97 96 96 96 95 94 93 92 91 90 89 89 91 94 95 96 95 95 96 98 98
98 98 98 98 97 96 94 94 94 94 93 92 93 94 93 92 91 89 92 95 96 95 95 96 96 97 98 99 99 99 99 99 99 99 98 98 97 97 96 95 94 93 91 88 85 86 89 92 95 97 99 99 99 99
99 99 98 98 98 98 97 96 94 92 90 91 93 93 93 94 95 96 96 96 96 97 97 98 98 98 97 97 98 99 99 99 99 99 99 98 98 98 96 95 93 90 89 92 96 98 99 99 99 99 99 99 99 99

GFSWCAN_prec_cthk_147.txt.gz
RH
97 94 90 85 80 77 79 89 94 82 73 67 63 58 60 57 56 58 63 75 92 86 84 87 88 86 85 79 77 78 83 84 91 96 93 89 86 86 84 81 78 82 88 83 92 87 65 55 73 61 47 43 46 49
90 83 80 84 82 81 90 96 91 83 78 69 67 65 61 62 63 67 74 90 96 88 84 84 90 95 93 89 90 86 85 86 90 92 88 86 88 85 80 89 77 80 73 77 75 62 54 61 47 43 42 43 45 46
80 81 85 82 81 89 95 98 91 81 74 67 64 64 64 65 69 78 90 98 95 87 83 82 87 91 92 93 93 93 92 88 87 84 86 88 96 88 86 84 80 74 68 68 61 61 63 53 45 44 46 48 45 41
85 88 87 85 88 98 98 98 95 88 72 62 62 67 67 73 83 88 97 97 95 91 90 86 86 89 93 96 96 95 95 95 94 91 92 91 91 88 88 79 75 71 67 71 70 66 51 49 49 51 54 49 42 38
80 88 89 87 88 95 98 95 91 81 66 59 69 72 81 93 94 97 98 98 97 94 89 90 95 95 95 94 91 90 89 87 88 90 87 87 88 88 90 85 80 71 69 65 60 52 50 51 52 52 48 43 38 34
61 83 86 89 88 97 97 94 83 74 62 65 74 89 98 99 99 98 99 99 98 94 92 97 98 98 95 89 87 82 81 82 85 85 86 86 84 89 97 91 79 81 71 62 55 49 43 39 43 46 42 37 35 34
42 78 87 90 92 98 92 83 75 63 64 68 82 98 98 98 99 99 97 94 97 93 89 92 98 98 92 89 83 80 79 80 81 82 85 81 88 88 87 93 83 75 58 52 47 39 34 35 36 37 36 35 35 38
49 78 89 92 96 95 90 74 70 66 67 72 95 98 98 98 98 98 95 92 94 93 85 90 94 91 87 83 82 79 76 75 75 73 69 72 81 83 79 73 71 60 50 49 44 32 27 32 35 35 35 35 37 38
58 82 93 94 92 87 75 69 68 72 80 91 98 97 97 99 98 96 93 90 87 82 86 87 86 88 80 79 75 75 75 74 71 71 68 67 73 72 60 57 54 51 46 40 38 33 32 34 34 33 33 36 37 39
82 91 92 92 86 73 66 70 76 81 87 96 92 93 98 98 98 94 85 78 83 80 78 84 82 86 80 79 78 75 71 69 70 67 59 60 54 49 48 42 44 41 38 38 35 36 35 34 33 33 34 36 37 33
93 95 93 90 78 71 72 76 85 88 93 92 86 92 98 92 85 76 70 71 79 80 76 76 74 72 71 63 60 58 59 63 66 65 64 64 60 51 47 46 39 35 35 36 38 36 35 32 32 34 36 36 32 29
95 92 89 87 83 78 76 79 85 93 92 85 93 95 94 84 78 73 77 74 77 78 71 68 68 63 62 56 54 54 53 53 59 56 62 61 50 42 43 44 39 36 39 40 38 36 36 34 35 37 37 33 29 26
95 91 89 87 85 85 84 84 89 95 90 91 89 79 81 78 79 75 73 75 75 76 75 74 78 73 70 65 67 67 69 74 70 69 59 48 48 47 48 49 48 45 44 42 37 36 36 37 39 38 37 31 28 25
89 87 86 87 87 88 89 91 91 92 89 84 75 79 81 84 77 75 77 77 83 84 78 76 78 77 75 73 73 72 76 73 76 73 64 62 62 55 56 54 53 49 46 41 40 38 37 39 40 38 37 30 26 25
80 79 79 82 85 89 91 90 88 84 81 77 77 85 81 82 79 79 83 81 88 87 80 76 75 72 75 76 76 76 79 76 72 69 69 68 66 58 55 59 56 51 46 43 42 41 42 43 44 41 40 32 28 26
75 73 77 81 86 88 89 85 83 78 80 81 82 84 86 85 83 84 86 86 84 82 80 74 76 72 75 74 74 73 74 73 70 73 76 72 70 65 63 59 57 54 49 47 46 46 46 47 47 46 45 41 32 29
84 80 78 78 80 84 81 81 81 82 84 85 88 86 88 88 85 84 86 90 86 83 87 80 73 74 76 78 80 81 82 81 77 75 77 75 69 70 64 60 58 55 51 47 46 46 46 47 46 46 47 47 42 36
91 88 87 81 78 77 78 81 85 88 92 92 89 87 85 85 86 87 88 88 84 84 82 80 81 81 84 84 88 88 88 86 85 79 74 71 66 63 62 60 58 57 55 51 51 51 50 48 48 50 51 52 51 43
88 89 85 83 79 75 79 82 85 91 93 92 89 89 89 90 87 89 92 91 93 90 88 90 90 94 95 95 94 92 90 88 83 77 76 75 73 68 65 64 63 63 61 56 53 52 52 53 53 53 53 52 52 51
78 74 69 66 70 73 76 79 78 80 86 90 90 90 91 89 89 90 90 93 95 93 93 95 96 97 98 97 96 95 94 89 84 79 77 74 71 67 66 63 61 60 60 58 54 53 53 52 52 51 49 49 50 50
58 56 56 54 56 62 63 62 65 67 68 71 73 76 80 85 84 86 88 88 88 94 95 96 98 98 98 97 96 95 95 93 90 88 85 82 79 75 71 68 65 62 61 60 59 57 55 53 52 52 51 52 52 53
52 49 48 49 49 53 55 56 56 54 56 56 55 51 53 54 53 52 53 55 65 72 82 92 97 98 96 93 92 92 92 91 89 88 88 86 85 82 78 75 71 70 71 70 68 64 64 64 60 56 56 55 56 57
62 61 58 55 55 57 61 55 50 48 50 48 46 45 48 51 49 46 49 51 51 53 55 60 66 76 83 87 89 88 87 85 84 84 85 86 86 83 82 80 80 81 79 78 74 71 70 69 70 68 64 63 64 65
75 72 71 69 66 71 65 66 64 61 60 56 55 53 57 55 48 48 52 50 49 48 47 48 48 50 52 56 63 72 78 81 79 77 78 80 81 80 78 77 76 77 80 79 79 80 79 77 74 73 72 71 70 69
79 78 71 69 70 69 73 71 71 68 70 67 63 64 64 59 57 56 55 53 50 51 53 53 53 51 48 46 45 48 51 55 60 66 71 77 79 79 80 81 80 78 80 82 81 79 80 79 78 77 76 76 77 78
83 83 80 79 79 75 75 74 73 70 71 70 69 71 69 66 62 61 58 55 54 56 58 58 58 57 54 52 49 49 52 55 55 55 55 57 62 69 74 78 80 82 85 87 86 83 82 80 79 79 81 81 81 81
55 57 62 68 74 78 80 79 77 76 74 71 72 70 68 66 65 64 62 62 63 67 68 68 66 65 64 62 62 63 64 64 65 66 66 64 63 63 66 70 74 78 82 86 88 87 84 82 81 81 81 81 81 81
54 56 55 55 58 61 68 74 78 79 80 79 78 78 76 71 70 72 75 77 78 79 81 83 85 86 87 86 85 84 84 82 82 81 82 83 81 78 75 75 76 79 81 83 84 83 81 80 81 84 86 89 89 88
46 47 47 50 53 55 60 61 64 67 68 70 72 77 79 83 85 88 91 93 95 97 97 96 96 97 97 97 97 95 94 93 92 93 93 93 93 93 93 94 93 93 93 94 96 95 94 92 91 90 90 91 92 92
66 60 59 57 58 63 61 61 63 70 76 83 86 87 89 91 93 96 97 98 98 98 97 95 95 96 96 97 98 97 97 96 95 94 93 94 94 95 95 95 95 94 93 92 92 93 95 95 95 94 95 95 95 96
95 88 84 77 72 74 77 75 78 82 86 89 91 90 92 93 92 94 95 96 96 96 97 97 97 96 96 96 98 98 98 97 97 97 97 98 99 99 98 96 94 92 91 90 89 90 92 95 97 96 94 95 97 99
99 99 98 98 97 95 94 93 91 89 89 92 94 94 95 95 94 94 96 95 94 93 93 92 93 94 95 97 99 99 99 99 99 99 99 98 98 98 98 97 96 95 94 93 92 91 91 92 94 97 99 99 99 99
98 99 99 99 98 98 98 98 97 93 93 93 93 92 92 92 92 92 91 91 92 94 95 97 98 99 99 99 99 99 99 98 99 99 99 99 99 98 98 98 97 96 96 97 98 98 99 99 99 99 99 99 99 99